sat.trackr.live / text

‹ back to catalog

STARLINK-3523

NORAD 51729 · 2022-016R

PAYLOAD ACTIVE UNKNOWN

§ Identity

Operator
Country
US
Launch date
2022-02-21
Launch site
AFETR
Launch vehicle
Mass (kg)
RCS (m²)

Purposes: comms

External: N2YO · Heavens-Above · Gunter

§ Orbital elements

Epoch: 2026-09-20T04:36:32.472864Z

Period
93.85 min
Inclination
53.1594°
Eccentricity
0.0001238
Mean motion
15.34386311 rev/d
Perigee alt
461.9 km
Apogee alt
463.6 km
Semi-major
6,840.9 km
B*
5.2552e-5
RAAN
150.8466°
Arg perigee
95.6919°
Mean anomaly
264.4225°
Rev number
25,313

§ Raw data

STARLINK-35231 51729U 22016R   26263.19204251  .00001399  00000+0  52552-4 0  99922 51729  53.1594 150.8466 0001238  95.6919 264.4225 15.34386311253130

JSON: /api/v1/satellites/51729 · /tle

For live sub-satellite position, see the globe view (requires WebGL).

§ Visibility from observer

Set your observer location to see the next 7 days of passes ≥ 10°. The values pass through the URL so the page stays shareable.

No JS? Fill the form by hand. The geolocation button needs JavaScript.